MMSATS-1

Last updated on Sat Apr 01 2023 00:02:07 GMT+0000 (Coordinated Universal Time)

1 47976U 98067SJ 23088.80210424 .01496740 11933-4 56126-3 0 9990 2 47976 51.6186 304.0858 0009220 236.1516 214.4248 16.23530451115144

Satellite not in orbit